period_start,C,m1,H,J0,J1,J2,J3,J4,J5,JA,JB,JC,JD,JJ,JK,JN,#
2014-03-26 00:00:26,0.09,3.31,0.00,19.82,25.32,28.30,6.20,32.63,997.92,2045.97,2299.31,2505.90,2721.91,350.30,321.85,29.02,0000 0000 0000 0000 000000
2014-03-26 00:01:26,0.14,3.31,0.00,19.82,25.32,28.29,5.98,32.58,997.96,2045.99,2299.12,2505.66,2721.78,349.15,321.02,29.03,0000 0000 0000 0000 000000
2014-03-26 00:02:26,0.16,3.31,0.00,19.82,25.32,28.29,5.94,32.54,997.92,2045.99,2299.05,2505.40,2721.47,349.33,320.49,29.03,0000 0000 0000 0000 000000
2014-03-26 00:03:27,0.15,3.31,0.00,19.82,25.32,28.28,6.06,32.38,997.95,2045.99,2299.00,2505.16,2721.20,350.25,321.28,29.04,0000 0000 0000 0000 000000
2014-03-26 00:04:27,0.13,3.31,0.00,19.82,25.32,28.29,5.96,32.46,997.88,2045.99,2298.85,2505.06,2721.07,350.07,321.17,29.04,0000 0000 0000 0000 000000
2014-03-26 00:05:27,0.09,3.31,0.00,19.82,25.30,28.28,6.09,32.58,997.91,2045.99,2298.48,2505.02,2721.02,350.06,321.88,29.05,0000 0000 0000 0000 000000
2014-03-26 00:06:28,0.09,3.31,0.00,19.82,25.30,28.28,6.12,32.58,997.92,2045.99,2298.18,2505.00,2721.01,349.75,321.47,29.06,0000 0000 0000 0000 000000
2014-03-26 00:07:28,0.08,3.31,0.00,19.82,25.30,28.29,5.79,32.42,997.87,2045.99,2298.06,2504.99,2720.97,349.47,320.90,29.06,0000 0000 0000 0000 000000
2014-03-26 00:08:28,0.03,3.31,0.00,19.82,25.30,28.27,6.09,32.46,997.90,2045.98,2298.02,2504.95,2720.93,350.94,322.05,29.07,0000 0000 0000 0000 000000
2014-03-26 00:09:28,0.02,3.31,0.00,19.82,25.30,28.28,6.06,32.54,997.89,2045.99,2298.00,2504.91,2720.83,349.87,321.33,29.07,0000 0000 0000 0000 000000
2014-03-26 00:10:29,0.06,3.31,0.00,19.82,25.30,28.27,6.08,32.46,997.85,2045.99,2297.90,2504.67,2720.53,349.99,321.43,29.08,0000 0000 0000 0000 000000
2014-03-26 00:11:29,0.14,3.32,0.00,19.81,25.30,28.27,6.11,32.71,997.75,2045.99,2297.70,2504.39,2720.24,350.73,321.99,29.09,0000 0000 0000 0000 000000
2014-03-26 00:12:29,0.21,3.32,0.00,19.82,25.30,28.26,6.03,32.50,997.65,2045.99,2297.31,2504.17,2720.11,350.14,321.51,29.09,0000 0000 0000 0000 000000
2014-03-26 00:13:30,0.17,3.32,0.00,19.81,25.29,28.24,6.02,32.50,997.63,2045.99,2297.12,2504.06,2720.04,350.53,321.55,29.10,0000 0000 0000 0000 000000
2014-03-26 00:14:30,0.09,3.32,0.00,19.81,25.29,28.24,5.98,32.42,997.60,2045.99,2297.04,2504.02,2720.01,349.95,321.71,29.10,0000 0000 0000 0000 000000
2014-03-26 00:15:30,0.03,3.32,0.00,19.80,25.28,28.25,5.92,32.71,997.59,2045.99,2297.01,2504.00,2720.00,349.45,320.59,29.11,0000 0000 0000 0000 000000
2014-03-26 00:16:31,0.01,3.32,0.00,19.80,25.27,28.23,5.98,32.54,997.59,2045.99,2297.00,2504.00,2720.00,350.21,321.57,29.12,0000 0000 0000 0000 000000
2014-03-26 00:17:31,0.00,3.32,0.00,19.80,25.27,28.24,6.01,32.58,997.60,2045.99,2296.98,2504.00,2720.00,350.75,322.07,29.12,0000 0000 0000 0000 000000
2014-03-26 00:18:31,0.00,3.32,0.00,19.80,25.27,28.25,5.94,32.33,997.60,2046.00,2296.92,2504.00,2719.99,350.56,321.90,29.13,0000 0000 0000 0000 000000
2014-03-26 00:19:31,0.02,3.32,0.00,19.81,25.27,28.26,6.09,32.50,997.58,2046.00,2296.75,2503.99,2719.94,350.54,321.80,29.13,0000 0000 0000 0000 000000
2014-03-26 00:20:32,0.06,3.32,0.00,19.81,25.27,28.26,6.12,32.46,997.58,2046.00,2296.39,2503.96,2719.79,350.39,321.47,29.14,0000 0000 0000 0000 000000
2014-03-26 00:21:32,0.12,3.32,0.00,19.81,25.27,28.25,6.07,32.42,997.57,2046.00,2296.16,2503.84,2719.41,350.50,321.81,29.14,0000 0000 0000 0000 000000
2014-03-26 00:22:32,0.16,3.32,0.00,19.81,25.27,28.26,6.00,32.54,997.58,2046.00,2296.07,2503.50,2719.19,349.51,320.50,29.15,0000 0000 0000 0000 000000
2014-03-26 00:23:32,0.17,3.32,0.00,19.81,25.27,28.26,6.18,32.54,997.57,2046.01,2296.02,2503.22,2719.08,350.02,321.38,29.16,0000 0000 0000 0000 000000
2014-03-26 00:24:33,0.12,3.32,0.00,19.81,25.27,28.26,6.18,32.63,997.57,2046.00,2296.00,2503.11,2719.03,350.87,322.13,29.16,0000 0000 0000 0000 000000
2014-03-26 00:25:33,0.05,3.32,0.00,19.82,25.26,28.25,6.04,32.46,997.59,2046.00,2295.97,2503.05,2719.01,349.72,321.12,29.17,0000 0000 0000 0000 000000
2014-03-26 00:26:33,0.04,3.32,0.00,19.82,25.25,28.21,5.90,32.38,997.57,2046.00,2295.64,2503.02,2719.00,349.44,320.83,29.17,0000 0000 0000 0000 000000
2014-03-26 00:27:34,0.07,3.32,0.00,19.82,25.25,28.23,6.03,32.58,997.57,2046.00,2295.24,2503.01,2718.97,350.55,321.86,29.18,0000 0000 0000 0000 000000
2014-03-26 00:28:34,0.10,3.32,0.00,19.80,25.25,28.25,5.98,32.38,997.57,2046.00,2295.08,2502.99,2718.81,350.07,321.42,29.19,0000 0000 0000 0000 000000
2014-03-26 00:29:34,0.09,3.32,0.00,19.80,25.25,28.22,6.02,32.58,997.57,2046.00,2295.01,2502.85,2718.42,349.98,321.34,29.19,0000 0000 0000 0000 000000
2014-03-26 00:30:34,0.19,3.33,0.00,19.80,25.25,28.22,6.13,32.58,997.57,2046.01,2294.55,2502.42,2718.15,350.45,321.79,29.20,0000 0000 0000 0000 000000
2014-03-26 00:31:35,0.25,3.33,0.00,19.81,25.25,28.23,6.13,32.71,997.57,2046.01,2294.20,2502.17,2718.05,350.40,321.58,29.20,0000 0000 0000 0000 000000
2014-03-26 00:32:35,0.17,3.33,0.00,19.81,25.25,28.24,5.83,32.58,997.58,2046.02,2294.07,2502.06,2718.01,349.23,320.83,29.21,0000 0000 0000 0000 000000
2014-03-26 00:33:35,0.07,3.33,0.00,19.81,25.25,28.23,6.08,32.50,997.58,2046.03,2294.02,2502.02,2717.98,350.37,321.84,29.22,0000 0000 0000 0000 000000
2014-03-26 00:34:36,0.04,3.33,0.00,19.82,25.25,28.24,6.04,32.46,997.58,2046.03,2293.97,2502.00,2717.72,349.72,321.52,29.22,0000 0000 0000 0000 000000
2014-03-26 00:35:36,0.08,3.33,0.00,19.80,25.24,28.23,6.01,32.54,997.57,2046.02,2293.53,2501.94,2717.42,349.61,320.82,29.23,0000 0000 0000 0000 000000
2014-03-26 00:36:36,0.20,3.33,0.00,19.79,25.24,28.24,6.02,32.33,997.57,2046.03,2293.19,2501.50,2717.16,350.12,321.57,29.23,0000 0000 0000 0000 000000
2014-03-26 00:37:37,0.23,3.33,0.00,19.80,25.23,28.25,6.05,32.50,997.57,2046.02,2293.06,2501.19,2717.06,350.12,321.48,29.24,0000 0000 0000 0000 000000
2014-03-26 00:38:37,0.14,3.33,0.00,19.80,25.23,28.23,6.01,32.79,997.57,2046.03,2292.77,2501.07,2717.01,350.30,321.64,29.24,0000 0000 0000 0000 000000
2014-03-26 00:39:37,0.15,3.33,0.00,19.82,25.22,28.23,5.98,32.46,997.57,2046.07,2292.32,2501.02,2716.72,349.79,321.16,29.25,0000 0000 0000 0000 000000
2014-03-26 00:40:37,0.18,3.34,0.00,19.82,25.22,28.22,5.88,32.50,997.57,2046.06,2292.11,2500.94,2716.31,349.73,320.98,29.26,0000 0000 0000 0000 000000
2014-03-26 00:41:38,0.15,3.34,0.00,19.82,25.22,28.22,6.08,32.46,997.57,2046.08,2292.01,2500.67,2716.12,350.47,321.67,29.26,0000 0000 0000 0000 000000
2014-03-26 00:42:38,0.15,3.34,0.00,19.82,25.22,28.24,5.94,32.46,997.58,2046.06,2291.70,2500.31,2716.03,349.96,321.18,29.27,0000 0000 0000 0000 000000
2014-03-26 00:43:38,0.19,3.34,0.00,19.82,25.22,28.24,5.93,32.29,997.57,2046.05,2291.25,2500.11,2715.75,349.47,320.86,29.27,0000 0000 0000 0000 000000
2014-03-26 00:44:39,0.22,3.34,0.00,19.82,25.22,28.22,6.07,32.46,997.58,2046.04,2290.80,2499.91,2715.30,350.26,321.59,29.28,0000 0000 0000 0000 000000
2014-03-26 00:45:39,0.27,3.34,0.00,19.82,25.22,28.24,6.02,32.46,997.59,2046.05,2290.30,2499.45,2715.10,350.19,321.19,29.29,0000 0000 0000 0000 000000
2014-03-26 00:46:39,0.30,3.34,0.00,19.82,25.22,28.23,5.97,32.29,997.59,2046.08,2289.95,2499.16,2714.80,350.11,321.45,29.29,0000 0000 0000 0000 000000
2014-03-26 00:47:39,0.27,3.35,0.00,19.82,25.22,28.22,6.09,32.46,997.57,2046.06,2289.40,2499.00,2714.32,350.35,321.68,29.30,0000 0000 0000 0000 000000
2014-03-26 00:48:40,0.25,3.35,0.00,19.80,25.22,28.21,5.99,32.50,997.61,2046.08,2289.06,2498.56,2714.11,349.73,321.40,29.30,0000 0000 0000 0000 000000
2014-03-26 00:49:40,0.28,3.35,0.00,19.81,25.22,28.22,6.05,32.75,997.59,2046.09,2288.47,2498.21,2713.78,349.95,321.54,29.31,0000 0000 0000 0000 000000
2014-03-26 00:50:40,0.32,3.35,0.00,19.82,25.21,28.21,6.00,32.54,997.58,2046.08,2288.00,2497.88,2713.30,349.88,321.21,29.31,0000 0000 0000 0000 000000
2014-03-26 00:51:41,0.34,3.35,0.00,19.82,25.21,28.21,5.91,32.54,997.58,2046.07,2287.40,2497.37,2713.03,349.78,321.40,29.32,0000 0000 0000 0000 000000
2014-03-26 00:52:41,0.35,3.35,0.00,19.82,25.20,28.23,6.06,32.42,997.58,2046.11,2286.88,2497.13,2712.47,349.38,320.90,29.33,0000 0000 0000 0000 000000
2014-03-26 00:53:41,0.32,3.36,0.00,19.82,25.20,28.22,6.09,32.58,997.57,2046.10,2286.35,2496.84,2712.17,350.56,321.86,29.33,0000 0000 0000 0000 000000
2014-03-26 00:54:41,0.32,3.36,0.00,19.82,25.20,28.21,6.12,32.54,997.59,2046.16,2286.01,2496.34,2712.03,350.21,321.55,29.34,0000 0000 0000 0000 000000
2014-03-26 00:55:42,0.30,3.36,0.00,19.81,25.20,28.22,5.92,32.38,997.58,2046.16,2285.43,2496.12,2711.53,350.20,321.68,29.34,0000 0000 0000 0000 000000
2014-03-26 00:56:42,0.27,3.36,0.00,19.81,25.20,28.23,6.07,32.50,997.57,2046.18,2284.94,2495.84,2711.19,350.19,321.53,29.35,0000 0000 0000 0000 000000
2014-03-26 00:57:42,0.32,3.36,0.00,19.81,25.20,28.23,5.91,32.46,997.57,2046.20,2284.33,2495.35,2710.70,349.96,321.43,29.36,0000 0000 0000 0000 000000
2014-03-26 00:58:43,0.44,3.37,0.00,19.82,25.20,28.22,5.87,32.54,997.57,2046.33,2283.62,2495.08,2710.24,349.08,320.56,29.36,0000 0000 0000 0000 000000
2014-03-26 00:59:43,0.48,3.37,0.00,19.82,25.20,28.23,5.94,32.54,997.58,2046.45,2283.04,2494.51,2709.67,350.79,322.03,29.37,0000 0000 0000 0000 000000
2014-03-26 01:00:43,0.51,3.37,0.00,19.82,25.20,28.21,5.78,32.67,997.57,2046.53,2282.41,2494.18,2709.24,349.42,320.82,29.37,0000 0000 0000 0000 000000
2014-03-26 01:01:44,0.39,3.37,0.00,19.82,25.20,28.22,6.19,32.63,997.57,2046.62,2282.01,2493.94,2709.05,350.07,321.42,29.38,0000 0000 0000 0000 000000
2014-03-26 01:02:44,0.35,3.38,0.00,19.82,25.20,28.21,5.90,32.46,997.58,2046.76,2281.44,2493.55,2708.70,350.17,321.51,29.39,0000 0000 0000 0000 000000
2014-03-26 01:03:44,0.44,3.38,0.00,19.82,25.19,28.23,6.17,32.54,997.57,2046.82,2281.16,2493.21,2708.28,350.32,321.64,29.39,0000 0000 0000 0000 000000
2014-03-26 01:04:45,0.26,3.38,0.00,19.82,25.19,28.25,6.04,32.46,997.57,2046.82,2280.90,2493.07,2708.09,350.60,321.89,29.40,0000 0000 0000 0000 000000
2014-03-26 01:05:45,0.17,3.38,0.00,19.82,25.19,28.23,5.91,32.50,997.57,2046.82,2280.50,2492.98,2707.96,350.07,321.31,29.40,0000 0000 0000 0000 000000
2014-03-26 01:06:45,0.16,3.38,0.00,19.83,25.19,28.21,5.79,32.58,997.58,2046.76,2280.20,2492.60,2707.49,349.16,320.57,29.41,0000 0000 0000 0000 000000
2014-03-26 01:07:45,0.22,3.38,0.00,19.83,25.18,28.21,6.09,32.58,997.57,2046.80,2280.04,2492.25,2707.19,350.40,321.71,29.41,0000 0000 0000 0000 000000
2014-03-26 01:08:46,0.20,3.38,0.00,19.84,25.18,28.20,6.08,32.33,997.58,2046.84,2279.88,2492.09,2707.07,350.60,322.06,29.42,0000 0000 0000 0000 000000
2014-03-26 01:09:46,0.19,3.39,0.00,19.84,25.17,28.22,6.00,32.54,997.57,2046.89,2279.41,2492.02,2707.01,350.55,321.42,29.43,0000 0000 0000 0000 000000
2014-03-26 01:10:46,0.16,3.39,0.00,19.84,25.17,28.23,6.13,32.42,997.57,2046.89,2279.15,2491.98,2706.90,350.69,321.89,29.43,0000 0000 0000 0000 000000
2014-03-26 01:11:46,0.12,3.39,0.00,19.84,25.17,28.19,5.86,32.54,997.58,2046.90,2279.04,2491.76,2706.45,349.70,320.89,29.44,0000 0000 0000 0000 000000
2014-03-26 01:12:47,0.20,3.39,0.00,19.84,25.17,28.19,6.20,32.63,997.59,2046.91,2278.77,2491.35,2706.17,350.50,321.58,29.44,0000 0000 0000 0000 000000
2014-03-26 01:13:47,0.24,3.39,0.00,19.84,25.17,28.18,5.98,32.46,997.57,2046.89,2278.34,2491.13,2706.07,349.90,321.23,29.45,0000 0000 0000 0000 000000
2014-03-26 01:14:47,0.17,3.39,0.00,19.84,25.17,28.22,6.08,32.75,997.57,2046.90,2278.12,2491.05,2706.01,350.91,322.13,29.46,0000 0000 0000 0000 000000
2014-03-26 01:15:48,0.07,3.39,0.00,19.83,25.17,28.26,5.96,32.46,997.57,2046.86,2278.01,2490.99,2705.92,349.85,321.56,29.46,0000 0000 0000 0000 000000
2014-03-26 01:16:48,0.07,3.39,0.00,19.84,25.17,28.23,5.83,32.38,997.58,2046.91,2277.62,2490.86,2705.56,349.89,321.64,29.47,0000 0000 0000 0000 000000
2014-03-26 01:17:48,0.24,3.39,0.00,19.84,25.17,28.23,5.95,32.54,997.58,2046.94,2277.25,2490.48,2705.23,350.19,320.64,29.47,0000 0000 0000 0000 000000
2014-03-26 01:18:48,0.30,3.40,0.00,19.84,25.17,28.21,5.83,32.50,997.58,2046.95,2277.08,2490.19,2705.08,349.86,321.21,29.48,0000 0000 0000 0000 000000
2014-03-26 01:19:49,0.16,3.40,0.00,19.84,25.17,28.20,6.08,32.71,997.58,2046.95,2277.02,2490.08,2705.02,350.38,321.68,29.48,0000 0000 0000 0000 000000
2014-03-26 01:20:49,0.04,3.40,0.00,19.84,25.17,28.21,5.97,32.54,997.57,2046.90,2276.84,2490.03,2704.99,349.13,320.52,29.49,0000 0000 0000 0000 000000
2014-03-26 01:21:49,0.05,3.40,0.00,19.84,25.17,28.20,5.84,32.50,997.57,2046.90,2276.35,2489.99,2704.84,349.38,320.37,29.50,0000 0000 0000 0000 000000
2014-03-26 01:22:50,0.15,3.40,0.00,19.84,25.17,28.22,5.84,32.46,997.57,2046.94,2276.12,2489.93,2704.48,349.11,320.49,29.50,0000 0000 0000 0000 000000
2014-03-26 01:23:50,0.18,3.40,0.00,19.84,25.17,28.21,5.98,32.54,997.57,2046.97,2276.03,2489.56,2704.19,350.63,321.64,29.51,0000 0000 0000 0000 000000
2014-03-26 01:24:50,0.21,3.40,0.00,19.83,25.17,28.22,5.93,32.38,997.57,2046.91,2275.67,2489.21,2704.07,349.62,321.15,29.51,0000 0000 0000 0000 000000
2014-03-26 01:25:50,0.12,3.40,0.00,19.84,25.17,28.22,5.97,32.54,997.57,2046.78,2275.28,2489.08,2703.98,349.90,321.25,29.52,0000 0000 0000 0000 000000
2014-03-26 01:26:51,0.09,3.40,0.00,19.84,25.16,28.22,6.02,32.58,997.57,2046.81,2275.10,2489.02,2703.87,349.25,320.92,29.53,0000 0000 0000 0000 000000
2014-03-26 01:27:51,0.11,3.40,0.00,19.84,25.16,28.20,6.10,32.54,997.57,2046.87,2275.03,2488.98,2703.54,350.16,321.57,29.53,0000 0000 0000 0000 000000
2014-03-26 01:28:51,0.13,3.40,0.00,19.84,25.16,28.19,5.98,32.42,997.57,2046.91,2274.95,2488.83,2703.22,350.18,321.65,29.54,0000 0000 0000 0000 000000
2014-03-26 01:29:51,0.19,3.40,0.00,19.84,25.16,28.19,5.97,32.46,997.57,2046.91,2274.52,2488.45,2703.08,349.85,321.18,29.54,0000 0000 0000 0000 000000
2014-03-26 01:30:52,0.23,3.41,0.00,19.84,25.15,28.21,5.88,32.46,997.57,2046.87,2274.19,2488.16,2703.03,349.38,320.38,29.55,0000 0000 0000 0000 000000
2014-03-26 01:31:52,0.14,3.41,0.00,19.84,25.15,28.20,6.03,32.50,997.57,2046.82,2274.05,2488.05,2702.95,350.32,321.61,29.56,0000 0000 0000 0000 000000
2014-03-26 01:32:52,0.02,3.41,0.00,19.84,25.15,28.19,6.03,32.58,997.57,2046.81,2273.91,2488.01,2702.68,350.76,321.67,29.56,0000 0000 0000 0000 000000
2014-03-26 01:33:53,0.13,3.41,0.00,19.84,25.15,28.21,5.80,32.38,997.57,2046.88,2273.69,2487.99,2702.41,349.89,321.23,29.57,0000 0000 0000 0000 000000
2014-03-26 01:34:53,0.19,3.41,0.00,19.85,25.15,28.22,6.06,32.42,997.57,2046.94,2273.32,2487.86,2702.17,350.31,321.60,29.57,0000 0000 0000 0000 000000
2014-03-26 01:35:53,0.22,3.41,0.00,19.85,25.15,28.21,6.02,32.71,997.57,2046.93,2273.11,2487.45,2702.05,351.01,322.25,29.58,0000 0000 0000 0000 000000
2014-03-26 01:36:53,0.18,3.41,0.00,19.85,25.15,28.21,5.89,32.46,997.57,2046.96,2273.04,2487.17,2702.02,349.50,320.86,29.58,0000 0000 0000 0000 000000
2014-03-26 01:37:54,0.13,3.41,0.00,19.84,25.15,28.22,6.19,32.67,997.57,2046.96,2272.97,2487.05,2701.98,350.97,322.21,29.59,0000 0000 0000 0000 000000
2014-03-26 01:38:54,0.07,3.41,0.00,19.85,25.15,28.19,6.12,32.54,997.57,2046.97,2272.62,2487.02,2701.94,349.22,320.60,29.60,0000 0000 0000 0000 000000
2014-03-26 01:39:54,0.10,3.41,0.00,19.86,25.15,28.19,6.03,32.58,997.57,2046.97,2272.27,2487.00,2701.51,349.83,321.15,29.60,0000 0000 0000 0000 000000
2014-03-26 01:40:54,0.18,3.41,0.00,19.87,25.15,28.21,6.09,32.46,997.57,2046.98,2272.09,2486.96,2701.19,349.91,321.22,29.61,0000 0000 0000 0000 000000
2014-03-26 01:41:55,0.11,3.41,0.00,19.86,25.15,28.21,5.94,32.29,997.57,2046.99,2272.01,2486.77,2701.07,349.20,320.57,29.61,0000 0000 0000 0000 000000
2014-03-26 01:42:55,0.11,3.41,0.00,19.86,25.15,28.22,6.14,32.67,997.57,2046.99,2271.99,2486.54,2701.02,350.15,321.63,29.62,0000 0000 0000 0000 000000
2014-03-26 01:43:55,0.08,3.42,0.00,19.87,25.15,28.21,6.02,32.46,997.57,2046.97,2271.98,2486.32,2701.01,349.54,320.69,29.63,0000 0000 0000 0000 000000
2014-03-26 01:44:55,0.07,3.42,0.00,19.87,25.15,28.22,6.01,32.38,997.57,2046.98,2271.78,2486.15,2700.99,349.70,321.02,29.63,0000 0000 0000 0000 000000
2014-03-26 01:45:55,0.11,3.42,0.00,19.87,25.15,28.21,5.93,32.42,997.57,2046.98,2271.38,2486.07,2700.97,349.74,321.06,29.64,0000 0000 0000 0000 000000
2014-03-26 01:46:56,0.13,3.42,0.00,19.87,25.15,28.20,5.93,32.50,997.57,2046.97,2271.17,2486.02,2700.84,349.76,321.08,29.64,0000 0000 0000 0000 000000
2014-03-26 01:47:56,0.09,3.42,0.00,19.87,25.15,28.19,5.92,32.50,997.57,2046.97,2271.06,2486.00,2700.44,349.63,320.94,29.65,0000 0000 0000 0000 000000
2014-03-26 01:48:56,0.10,3.42,0.00,19.88,25.15,28.21,6.04,32.71,997.57,2046.97,2271.01,2485.98,2700.18,350.06,321.38,29.65,0000 0000 0000 0000 000000
2014-03-26 01:49:56,0.07,3.42,0.00,19.89,25.15,28.23,5.89,32.54,997.57,2046.96,2270.90,2485.96,2700.08,349.18,320.52,29.66,0000 0000 0000 0000 000000
2014-03-26 01:50:57,0.06,3.42,0.00,19.89,25.15,28.25,5.87,32.33,997.57,2046.95,2270.55,2485.86,2700.03,349.39,321.01,29.67,0000 0000 0000 0000 000000
2014-03-26 01:51:57,0.12,3.42,0.00,19.89,25.15,28.22,6.05,32.67,997.57,2046.97,2270.22,2485.50,2700.01,350.25,321.79,29.67,0000 0000 0000 0000 000000
2014-03-26 01:52:57,0.21,3.42,0.00,19.89,25.15,28.20,6.13,32.38,997.57,2046.97,2270.08,2485.24,2700.00,349.52,321.48,29.68,0000 0000 0000 0000 000000
2014-03-26 01:53:58,0.10,3.42,0.00,19.89,25.15,28.22,5.98,32.46,997.57,2046.95,2270.03,2485.10,2699.94,349.55,321.16,29.68,0000 0000 0000 0000 000000
2014-03-26 01:54:58,0.05,3.42,0.00,19.89,25.15,28.21,6.07,32.54,997.57,2046.95,2270.00,2485.04,2699.81,350.10,321.05,29.69,0000 0000 0000 0000 000000
2014-03-26 01:55:58,0.06,3.42,0.00,19.89,25.15,28.21,5.86,32.63,997.56,2046.97,2269.85,2485.01,2699.53,349.33,320.90,29.70,0000 0000 0000 0000 000000
2014-03-26 01:56:58,0.13,3.42,0.00,19.89,25.15,28.23,6.07,32.58,997.57,2046.97,2269.38,2485.00,2699.21,350.34,321.58,29.70,0000 0000 0000 0000 000000
2014-03-26 01:57:59,0.15,3.42,0.00,19.89,25.15,28.21,5.94,32.42,997.57,2046.98,2269.14,2484.97,2699.08,349.65,320.94,29.71,0000 0000 0000 0000 000000
2014-03-26 01:58:59,0.10,3.42,0.00,19.89,25.15,28.21,5.92,32.50,997.57,2046.97,2269.05,2484.75,2699.03,349.49,320.80,29.71,0000 0000 0000 0000 000000
2014-03-26 01:59:59,0.09,3.43,0.00,19.89,25.15,28.21,6.14,32.29,997.56,2046.98,2269.01,2484.43,2699.01,350.63,321.84,29.72,0000 0000 0000 0000 000000
2014-03-26 02:00:59,0.12,3.43,0.00,19.90,25.15,28.20,5.97,32.42,997.54,2046.98,2268.98,2484.19,2698.99,349.99,321.24,29.73,0000 0000 0000 0000 000000
2014-03-26 02:02:00,0.08,3.43,0.00,19.91,25.15,28.19,5.83,32.71,997.56,2046.98,2268.79,2484.08,2698.94,349.14,320.69,29.73,0000 0000 0000 0000 000000
2014-03-26 02:03:00,0.09,3.43,0.00,19.91,25.15,28.22,5.77,32.50,997.57,2046.97,2268.36,2484.04,2698.66,348.96,320.37,29.74,0000 0000 0000 0000 000000
2014-03-26 02:04:00,0.18,3.43,0.00,19.90,25.15,28.23,5.84,32.79,997.57,2046.98,2268.13,2484.01,2698.26,350.07,321.31,29.74,0000 0000 0000 0000 000000
2014-03-26 02:05:00,0.13,3.43,0.00,19.91,25.15,28.22,6.10,32.58,997.56,2046.97,2268.03,2483.99,2698.09,350.79,321.98,29.75,0000 0000 0000 0000 000000
2014-03-26 02:06:01,0.03,3.43,0.00,19.92,25.15,28.21,6.14,32.71,997.56,2046.96,2267.98,2483.87,2698.03,350.52,321.81,29.75,0000 0000 0000 0000 000000
2014-03-26 02:07:01,0.08,3.43,0.00,19.92,25.15,28.21,6.06,32.54,997.55,2046.98,2267.71,2483.52,2698.00,350.25,321.46,29.76,0000 0000 0000 0000 000000
2014-03-26 02:08:01,0.21,3.43,0.00,19.92,25.15,28.20,6.04,32.54,997.57,2046.99,2267.39,2483.24,2697.96,349.40,321.03,29.77,0000 0000 0000 0000 000000
2014-03-26 02:09:01,0.17,3.43,0.00,19.92,25.15,28.21,6.16,32.58,997.57,2046.97,2267.17,2483.08,2697.74,350.99,322.15,29.77,0000 0000 0000 0000 000000
2014-03-26 02:10:01,0.13,3.43,0.00,19.92,25.15,28.20,6.06,32.58,997.57,2046.95,2267.06,2483.03,2697.32,350.63,321.63,29.78,0000 0000 0000 0000 000000
2014-03-26 02:11:02,0.10,3.43,0.00,19.92,25.15,28.21,5.92,32.46,997.57,2046.96,2267.02,2483.01,2697.12,349.43,320.93,29.78,0000 0000 0000 0000 000000
2014-03-26 02:12:02,0.05,3.43,0.00,19.92,25.15,28.18,6.08,32.50,997.56,2046.96,2266.95,2482.99,2697.04,349.91,320.79,29.79,0000 0000 0000 0000 000000
2014-03-26 02:13:02,0.02,3.43,0.00,19.92,25.15,28.22,6.14,32.79,997.55,2046.96,2266.61,2482.92,2697.01,350.19,321.44,29.80,0000 0000 0000 0000 000000
2014-03-26 02:14:02,0.12,3.43,0.00,19.94,25.15,28.21,6.06,32.71,997.56,2046.95,2266.27,2482.73,2696.99,350.41,321.45,29.80,0000 0000 0000 0000 000000
2014-03-26 02:15:03,0.14,3.44,0.00,19.94,25.15,28.24,5.85,32.42,997.56,2046.96,2266.10,2482.44,2696.97,349.37,320.63,29.81,0000 0000 0000 0000 000000
2014-03-26 02:16:03,0.13,3.44,0.00,19.94,25.15,28.22,5.85,32.54,997.57,2046.96,2266.03,2482.20,2696.92,350.32,321.70,29.81,0000 0000 0000 0000 000000
2014-03-26 02:17:03,0.11,3.44,0.00,19.94,25.15,28.22,6.10,32.54,997.56,2046.96,2266.01,2482.09,2696.59,350.04,321.32,29.82,0000 0000 0000 0000 000000
2014-03-26 02:18:03,0.12,3.44,0.00,19.94,25.15,28.22,6.02,32.54,997.57,2046.96,2265.94,2482.04,2696.23,350.21,321.41,29.83,0000 0000 0000 0000 000000
2014-03-26 02:19:03,0.09,3.44,0.00,19.94,25.15,28.22,6.14,32.58,997.57,2046.95,2265.67,2482.01,2696.10,350.27,321.46,29.83,0000 0000 0000 0000 000000
2014-03-26 02:20:04,0.11,3.44,0.00,19.94,25.15,28.22,5.98,32.50,997.57,2046.95,2265.27,2481.99,2696.03,350.61,321.78,29.84,0000 0000 0000 0000 000000
2014-03-26 02:21:04,0.07,3.44,0.00,19.95,25.15,28.22,6.00,32.67,997.57,2046.94,2265.10,2481.88,2696.00,349.78,321.00,29.84,0000 0000 0000 0000 000000
2014-03-26 02:22:04,0.09,3.44,0.00,19.96,25.15,28.23,6.14,32.50,997.57,2046.95,2265.02,2481.48,2695.94,351.07,322.18,29.85,0000 0000 0000 0000 000000
2014-03-26 02:23:05,0.18,3.44,0.00,19.96,25.15,28.24,6.03,32.58,997.57,2046.94,2264.90,2481.21,2695.67,349.83,320.88,29.85,0000 0000 0000 0000 000000
2014-03-26 02:24:05,0.16,3.44,0.00,19.97,25.15,28.26,6.08,32.63,997.56,2046.95,2264.48,2481.08,2695.31,350.16,320.99,29.86,0000 0000 0000 0000 000000
2014-03-26 02:25:05,0.25,3.44,0.00,19.97,25.15,28.24,5.98,32.46,997.57,2046.94,2264.18,2481.03,2695.11,349.54,320.77,29.87,0000 0000 0000 0000 000000
2014-03-26 02:26:05,0.06,3.44,0.00,19.97,25.15,28.25,5.92,32.58,997.55,2046.94,2264.07,2481.01,2695.04,350.08,320.99,29.87,0000 0000 0000 0000 000000
2014-03-26 02:27:06,0.06,3.44,0.00,19.97,25.15,28.23,5.93,32.54,997.56,2046.96,2264.02,2481.00,2695.01,350.09,321.06,29.88,0000 0000 0000 0000 000000
2014-03-26 02:28:06,0.02,3.44,0.00,19.97,25.15,28.25,5.89,32.63,997.56,2046.97,2263.99,2480.93,2694.99,349.23,320.67,29.88,0000 0000 0000 0000 000000
2014-03-26 02:29:06,0.06,3.44,0.00,19.97,25.15,28.24,5.95,32.63,997.54,2046.97,2263.83,2480.65,2694.94,350.67,321.82,29.89,0000 0000 0000 0000 000000
2014-03-26 02:30:06,0.15,3.45,0.00,19.98,25.15,28.23,6.02,32.67,997.56,2046.95,2263.40,2480.28,2694.55,350.02,321.57,29.90,0000 0000 0000 0000 000000
2014-03-26 02:31:06,0.30,3.45,0.00,19.99,25.15,28.26,5.95,32.63,997.57,2046.94,2263.14,2480.10,2694.24,349.50,320.48,29.90,0000 0000 0000 0000 000000
2014-03-26 02:32:07,0.13,3.45,0.00,19.99,25.15,28.26,6.07,32.58,997.57,2046.94,2263.05,2480.03,2694.09,350.44,321.56,29.91,0000 0000 0000 0000 000000
2014-03-26 02:33:07,0.07,3.45,0.00,19.99,25.15,28.24,5.97,32.67,997.57,2046.96,2263.01,2480.01,2694.03,350.20,320.73,29.91,0000 0000 0000 0000 000000
2014-03-26 02:34:07,0.03,3.45,0.00,19.99,25.15,28.26,6.08,32.50,997.57,2046.97,2262.86,2479.99,2694.01,350.64,321.85,29.92,0000 0000 0000 0000 000000
2014-03-26 02:35:07,0.06,3.45,0.00,20.00,25.15,28.27,6.12,32.58,997.57,2046.95,2262.46,2479.97,2694.00,350.59,321.75,29.92,0000 0000 0000 0000 000000
2014-03-26 02:36:08,0.09,3.45,0.00,20.01,25.15,28.27,6.05,32.46,997.57,2046.94,2262.17,2479.83,2693.94,350.62,321.71,29.93,0000 0000 0000 0000 000000
2014-03-26 02:37:08,0.14,3.45,0.00,20.02,25.15,28.27,5.96,32.42,997.56,2046.96,2262.06,2479.60,2693.64,349.53,321.00,29.94,0000 0000 0000 0000 000000